This demonstration page uses our WeatherBlox Daily Observations layout. Learn more.

Left ArrowRight Arrow

Hourly Observations for August 19, 2016

Temp ( °F °C ) Dew Point ( °F °C ) Humidity (%) Winds ( mph kmh ) Pressure ( in mb ) Visibility ( mi km ) Precip ( " mm )
12:14 am 00:14 Clear 70 21 68 20 94 94 S 3 6 30.06 1018 7 11.26538 N/A
12:34 am 00:34 Clear 70 21 68 20 94 94 S 5 7 30.06 1018 7 11.26538 N/A
12:54 am 00:54 Clear 70 21 68 20 94 94 S 5 7 30.06 1018 5 8.0467 N/A
1:14 am 01:14 Clear 70 21 68 20 94 94 S 6 9 30.06 1018 5 8.0467 N/A
1:34 am 01:34 Clear 70 21 68 20 94 94 SSW 6 9 30.06 1018 5 8.0467 N/A
1:54 am 01:54 Clear 70 21 68 20 94 94 WSW 3 6 30.06 1018 5 8.0467 N/A
2:15 am 02:15 Clear 70 21 68 20 94 94 Calm 30.06 1018 5 8.0467 N/A
2:34 am 02:34 Clear 68 20 68 20 100 100 Calm 30.06 1018 3 4.82802 N/A
2:54 am 02:54 Clear 68 20 68 20 100 100 S 5 7 30.06 1018 4 6.43736 N/A
3:15 am 03:15 Clear 70 21 68 20 94 94 S 7 11 30.06 1018 4 6.43736 N/A
3:34 am 03:34 Clear 70 21 68 20 94 94 SSW 3 6 30.06 1018 4 6.43736 N/A
3:54 am 03:54 Clear 70 21 68 20 94 94 S 6 9 30 1016 4 6.43736 N/A
4:15 am 04:15 Partly Cloudy 70 21 68 20 94 94 N 3 6 30.06 1018 4 6.43736 N/A
4:34 am 04:34 Mostly Cloudy 68 20 68 20 100 100 Calm 30.06 1018 3 4.82802 N/A
4:54 am 04:54 Partly Cloudy 68 20 68 20 100 100 SW 3 6 30.06 1018 3 4.82802 N/A
5:15 am 05:15 Mostly Cloudy 68 20 68 20 100 100 WSW 3 6 30.06 1018 2 3.21868 N/A
5:34 am 05:34 Cloudy 66 19 66 19 100 100 Calm 30.06 1018 2.5 4.02335 N/A
5:54 am 05:54 Partly Cloudy 68 20 68 20 100 100 Calm 30.03 1017 2.5 4.02335 N/A
6:14 am 06:14 Partly Cloudy 68 20 68 20 100 100 Calm 30.06 1018 2.5 4.02335 N/A
6:34 am 06:34 Cloudy 68 20 68 20 100 100 S 3 6 30.03 1017 3 4.82802 N/A
6:54 am 06:54 Cloudy 70 21 70 21 100 100 SSW 5 7 30.06 1018 3 4.82802 N/A
7:14 am 07:14 Cloudy 72 22 70 21 94 94 SW 5 7 30 1016 4 6.43736 N/A
7:34 am 07:34 Cloudy 72 22 70 21 94 94 SSW 5 7 30 1016 3 4.82802 N/A
7:54 am 07:54 Cloudy 72 22 70 21 94 94 SSW 7 11 30 1016 3 4.82802 N/A
8:14 am 08:14 Cloudy 72 22 72 22 100 100 SW 3 6 30 1016 4 6.43736 N/A
8:34 am 08:34 Cloudy 73 23 72 22 94 94 SW 5 7 30 1016 5 8.0467 N/A
8:54 am 08:54 Cloudy 73 23 72 22 94 94 SW 6 9 30 1016 5 8.0467 N/A
9:14 am 09:14 Cloudy 75 24 72 22 89 89 SSW 8 13 30 1016 7 11.26538 N/A
9:34 am 09:34 Mostly Cloudy 75 24 72 22 89 89 SSW 9 15 30 1016 7 11.26538 N/A
9:55 am 09:55 Partly Cloudy 75 24 72 22 89 89 SW 9 15 30 1016 7 11.26538 N/A
10:14 am 10:14 Partly Cloudy 77 25 72 22 83 83 S 6 9 30 1016 7 11.26538 N/A
10:34 am 10:34 Cloudy 77 25 72 22 83 83 SW 10 17 30 1016 7 11.26538 N/A
10:55 am 10:55 Cloudy 77 25 72 22 83 83 SW 7 11 30 1016 7 11.26538 N/A
11:14 am 11:14 Cloudy 77 25 72 22 83 83 SW 8 13 30 1016 7 11.26538 N/A
11:34 am 11:34 Mostly Cloudy 79 26 72 22 79 79 SW 9 15 30 1016 10 16.0934 N/A
11:54 am 11:54 Mostly Cloudy 79 26 72 22 79 79 SW 7 11 30 1016 10 16.0934 N/A
12:14 pm 12:14 Partly Cloudy 79 26 72 22 79 79 S 6 9 30 1016 10 16.0934 N/A
12:34 pm 12:34 Partly Cloudy 81 27 72 22 74 74 SSW 6 9 30 1016 10 16.0934 N/A
12:54 pm 12:54 Partly Cloudy 81 27 72 22 74 74 SSW 8 13 30 1016 10 16.0934 N/A
1:14 pm 13:14 Partly Cloudy 81 27 72 22 74 74 S 10 17 30 1016 10 16.0934 N/A
1:34 pm 13:34 Partly Cloudy 81 27 72 22 74 74 S 12 19 30 1016 10 16.0934 N/A
1:54 pm 13:54 Partly Cloudy 81 27 72 22 74 74 SSW 9 15 30 1016 10 16.0934 N/A
2:14 pm 14:14 Mostly Cloudy 82 28 72 22 70 70 S 10 17 29.97 1015 10 16.0934 N/A
2:34 pm 14:34 Mostly Cloudy 82 28 70 21 66 66 S 7 11 29.97 1015 10 16.0934 N/A
2:54 pm 14:54 Cloudy 81 27 70 21 70 70 S 7 11 29.97 1015 10 16.0934 N/A
3:14 pm 15:14 Cloudy 82 28 72 22 70 70 S 7 11 29.97 1015 10 16.0934 N/A
3:34 pm 15:34 Partly Cloudy 82 28 72 22 70 70 SW 9 15 29.94 1014 10 16.0934 N/A
3:54 pm 15:54 Sunny 84 29 70 21 62 62 SSW 5 7 29.94 1014 10 16.0934 N/A
4:14 pm 16:14 Partly Cloudy 82 28 70 21 66 66 WSW 3 6 29.94 1014 10 16.0934 N/A
4:34 pm 16:34 Cloudy 81 27 72 22 74 74 Calm 29.94 1014 10 16.0934 N/A
4:54 pm 16:54 Cloudy 77 25 70 21 79 79 WSW 18 30 29.94 1014 7 11.26538 N/A
5:14 pm 17:14 Cloudy 72 22 70 21 94 94 SSW 5 7 29.97 1015 3 4.82802 N/A
5:34 pm 17:34 Cloudy 73 23 66 19 78 78 N 14 22 29.97 1015 10 16.0934 N/A
5:54 pm 17:54 Cloudy 72 22 68 20 88 88 SE 5 7 29.97 1015 7 11.26538 N/A
6:14 pm 18:14 Cloudy 70 21 66 19 88 88 E 6 9 29.94 1014 4 6.43736 N/A
6:35 pm 18:35 Cloudy 70 21 68 20 94 94 E 3 6 29.94 1014 10 16.0934 N/A
6:54 pm 18:54 Mostly Cloudy 72 22 68 20 88 88 N 3 6 29.94 1014 7 11.26538 N/A
7:14 pm 19:14 Mostly Cloudy 72 22 68 20 88 88 Calm 29.94 1014 10 16.0934 N/A
7:34 pm 19:34 Mostly Cloudy 72 22 70 21 94 94 S 3 6 29.91 1013 10 16.0934 N/A
7:54 pm 19:54 Partly Cloudy 70 21 70 21 100 100 Calm 29.91 1013 10 16.0934 N/A
8:14 pm 20:14 Sunny 70 21 68 20 94 94 Calm 29.91 1013 10 16.0934 N/A
8:34 pm 20:34 Sunny 70 21 68 20 94 94 Calm 29.91 1013 10 16.0934 N/A
8:54 pm 20:54 Clear 70 21 68 20 94 94 Calm 29.91 1013 10 16.0934 N/A
9:14 pm 21:14 Clear 68 20 68 20 100 100 Calm 29.94 1014 10 16.0934 N/A
9:34 pm 21:34 Clear 68 20 68 20 100 100 Calm 29.94 1014 10 16.0934 N/A
9:54 pm 21:54 Clear 68 20 68 20 100 100 S 5 7 29.94 1014 10 16.0934 N/A
10:14 pm 22:14 Clear 68 20 68 20 100 100 Calm 29.94 1014 10 16.0934 N/A
10:34 pm 22:34 Clear 68 20 68 20 100 100 S 3 6 29.94 1014 10 16.0934 N/A
10:54 pm 22:54 Clear 68 20 68 20 100 100 Calm 29.94 1014 10 16.0934 N/A
11:14 pm 23:14 Clear 68 20 68 20 100 100 S 3 6 29.94 1014 7 11.26538 N/A
11:34 pm 23:34 Clear 68 20 68 20 100 100 Calm 29.94 1014 7 11.26538 N/A
11:54 pm 23:54 Clear 68 20 68 20 100 100 Calm 29.94 1014 7 11.26538 N/A

Powered by AerisWeather